パンスターズ彗星

C/2016 N6 ( PanSTARRS )

English version
Home page
Updated on April 7, 2020

---------------------------------------------------------------------

・ プロフィール

発見日 2016年7月14日
発見光度 20.7等
発見者 Pan-STARRS 1 telescope (Haleakala)

・ 写真集

・ 軌道要素

Epoch 2018 July 21.0 TT = JDT 2458320.5
T 2018 July 18.21067 TT                                 Rudenko
q   2.6690703            (2000.0)            P               Q
z  +0.0004677      Peri.  162.80587     -0.53335016     +0.08479677
 +/-0.0000001      Node   298.97626     +0.61778889     +0.71869321
e   0.9987518      Incl.  105.83230     +0.57781874     -0.69013737
From 3023 observations 2016 June 27-2020 Feb. 29, mean residual 0".4.

・ 星図

・ 光度変化

        m1 = 3.5 + 5 logΔ + 14.0 log r  [ ,0]  (              〜2018年 7月18日)
        m1 = 4.3 + 5 logΔ + 12.0 log r  [0, ]  (2018年 7月18日〜              )

---------------------------------------------------------------------

軌道要素はM.P.E.C. 2020-G65に掲載されたものです。
星図はステラナビゲータ Ver.10 (アストロアーツ) で作成したものです。
光度グラフはComet for Windowsで作成したものです。

---------------------------------------------------------------------

Copyright(C) Seiichi Yoshida (comet@aerith.net). All rights reserved.